TimeAKDT,TemperatureF,Dew PointF,Humidity,Sea Level PressureIn,VisibilityMPH,Wind Direction,Wind SpeedMPH,Gust SpeedMPH,PrecipitationIn,Events,Conditions,WindDirDegrees,DateUTC
12:53 AM,52.0,50.0,93,29.46,3.0,Calm,Calm,-,0.16,Rain,Rain,0,2013-09-07 08:53:00
12:59 AM,51.8,50.0,94,29.46,2.5,Calm,Calm,-,0.02,Rain,Rain,0,2013-09-07 08:59:00
1:03 AM,51.8,50.0,94,29.46,3.0,Calm,Calm,-,0.03,Rain,Rain,0,2013-09-07 09:03:00
1:25 AM,50.0,48.2,94,29.47,3.0,Calm,Calm,-,0.07,Rain,Rain,0,2013-09-07 09:25:00
1:37 AM,51.8,50.0,94,29.48,4.0,Variable,3.5,-,0.09,Rain,Light Rain,0,2013-09-07 09:37:00
1:53 AM,50.0,50.0,100,29.48,4.0,Calm,Calm,-,0.11,Rain,Light Rain,0,2013-09-07 09:53:00
2:00 AM,51.8,50.0,94,29.48,4.0,Calm,Calm,-,0.01,Rain,Light Rain,0,2013-09-07 10:00:00
2:13 AM,51.8,51.8,100,29.49,4.0,South,3.5,-,0.02,Rain,Light Rain,170,2013-09-07 10:13:00
2:53 AM,52.0,51.1,97,29.50,3.0,SSE,3.5,-,0.09,Rain,Rain,150,2013-09-07 10:53:00
3:17 AM,51.8,50.0,94,29.50,2.5,East,4.6,-,0.05,Rain,Light Rain,80,2013-09-07 11:17:00
3:22 AM,51.8,50.0,94,29.51,2.5,Calm,Calm,-,0.06,Rain,Rain,0,2013-09-07 11:22:00
3:30 AM,51.8,50.0,94,29.51,2.5,ESE,4.6,-,0.09,Rain,Rain,120,2013-09-07 11:30:00
3:53 AM,52.0,51.1,97,29.52,4.0,Variable,3.5,-,0.14,Rain,Light Rain,0,2013-09-07 11:53:00
4:00 AM,53.6,51.8,94,29.52,4.0,South,15.0,20.7,0.01,Rain,Light Rain,190,2013-09-07 12:00:00
4:07 AM,53.6,51.8,94,29.53,5.0,South,16.1,23.0,0.01,Rain,Light Rain,190,2013-09-07 12:07:00
4:19 AM,53.6,51.8,94,29.53,8.0,South,13.8,20.7,0.01,Rain,Light Rain,190,2013-09-07 12:19:00
4:53 AM,53.1,51.1,93,29.54,8.0,SSW,11.5,19.6,0.02,Rain,Light Rain,200,2013-09-07 12:53:00
5:31 AM,53.6,50.0,88,29.55,9.0,SSW,15.0,23.0,0.01,Rain,Light Rain,200,2013-09-07 13:31:00
5:53 AM,54.0,51.1,90,29.56,8.0,SSW,17.3,-,0.01,Rain,Light Rain,200,2013-09-07 13:53:00
6:53 AM,53.1,50.0,89,29.58,10.0,South,11.5,-,0.01,Rain,Light Rain,190,2013-09-07 14:53:00
7:53 AM,51.1,48.9,92,29.60,10.0,ESE,6.9,-,0.00,,Overcast,120,2013-09-07 15:53:00
8:23 AM,53.6,50.0,88,29.61,10.0,Calm,Calm,-,0.00,Rain,Light Rain,0,2013-09-07 16:23:00
8:53 AM,51.1,50.0,96,29.63,7.0,Calm,Calm,-,0.00,Rain,Light Rain,0,2013-09-07 16:53:00
9:53 AM,52.0,51.1,97,29.65,9.0,South,10.4,-,0.01,,Overcast,190,2013-09-07 17:53:00
10:53 AM,53.1,50.0,89,29.66,5.0,South,13.8,-,0.00,Rain,Light Rain,190,2013-09-07 18:53:00
11:53 AM,54.0,48.9,83,29.67,10.0,South,12.7,18.4,0.01,,Overcast,190,2013-09-07 19:53:00
12:53 PM,54.0,48.0,80,29.67,10.0,South,6.9,-,0.00,,Overcast,170,2013-09-07 20:53:00
1:53 PM,54.0,48.9,83,29.66,10.0,SSE,6.9,-,N/A,,Overcast,160,2013-09-07 21:53:00
2:53 PM,53.1,48.9,86,29.65,10.0,ESE,6.9,-,N/A,,Overcast,120,2013-09-07 22:53:00
3:53 PM,55.0,50.0,83,29.63,10.0,SE,3.5,-,N/A,,Overcast,130,2013-09-07 23:53:00
4:53 PM,55.0,48.9,80,29.60,10.0,Calm,Calm,-,N/A,,Overcast,0,2013-09-08 00:53:00
5:53 PM,55.0,48.9,80,29.56,10.0,Calm,Calm,-,N/A,,Overcast,0,2013-09-08 01:53:00
6:53 PM,54.0,50.0,86,29.55,10.0,Calm,Calm,-,N/A,,Mostly Cloudy,0,2013-09-08 02:53:00
7:53 PM,52.0,50.0,93,29.52,10.0,Calm,Calm,-,N/A,,Mostly Cloudy,0,2013-09-08 03:53:00
8:53 PM,50.0,48.0,93,29.49,10.0,Calm,Calm,-,N/A,,Mostly Cloudy,0,2013-09-08 04:53:00
9:53 PM,54.0,48.9,83,29.47,10.0,North,9.2,-,N/A,,Mostly Cloudy,360,2013-09-08 05:53:00
10:53 PM,55.9,48.0,75,29.45,10.0,North,10.4,-,0.00,Rain,Light Rain,10,2013-09-08 06:53:00
11:53 PM,55.0,48.0,77,29.43,10.0,NE,16.1,24.2,0.00,Rain,Light Rain,50,2013-09-08 07:53:00